[[{"header":{"parameterUnit":"m.s-1","parameterCategory":1,"la1":30.2991,"la2":30.254,"lo1":-89.0895,"lo2":-89.0444,"dy":0.0017,"dx":0.0017,"nx":28,"ny":28,"refTime":"2025-02-23T03:00:00:Z","depth":0,"parameterNumber":2,"parameterNumberName":"U-component_of_WINDS"},"data":[0,0,0,0,0,0,0,0,0,0,0,0,0,0,0,0,0,0,0,0,0,0,0,0,0,0,0,0,0,0,0,0,0,0,0,0,0,0,0,0,0,0,0,0,0,0,0,0,0,0,0,0,0,0,0,0,0,0,-1.5875,-1.5875,0,-1.5917,-1.5917,-1.5918,-1.589,-1.5889,-1.5888,-1.5886,-1.593,-1.5932,-1.5935,0,0,0,0,0,0,0,0,0,0,0,0,0,-1.577,-1.5772,-1.5875,-1.5875,-1.5876,-1.5917,-1.5917,-1.5918,-1.589,-1.5889,-1.5887,-1.5886,-1.5929,-1.5932,-1.5935,0,0,0,0,0,0,0,0,0,0,0,0,0,-1.5814,-1.5773,-1.5875,-1.5867,-1.5867,-1.5917,-1.5917,-1.5918,-1.5891,-1.5889,-1.5887,-1.5885,-1.5928,-1.5932,-1.5935,-1.5995,0,0,-1.5946,-1.5947,0,0,0,0,0,0,0,0,-1.5812,-1.5818,-1.5867,-1.5868,-1.5867,-1.5896,-1.5896,-1.5944,-1.5891,-1.5882,-1.5886,-1.5884,-1.592,-1.5924,-1.5936,-1.5997,-1.5999,-1.5946,-1.5948,-1.595,-1.5951,0,0,0,0,0,0,0,-1.5809,-1.5816,-1.5891,-1.5868,-1.5868,-1.5861,-1.5865,-1.5905,-1.5911,-1.5882,-1.588,-1.5886,-1.592,-1.5933,-1.5937,-1.6,-1.5946,-1.5949,-1.5951,-1.5953,-1.6112,-1.6114,0,0,0,0,0,0,-1.5806,-1.5814,-1.589,-1.5893,-1.5834,-1.5865,-1.5869,-1.5889,-1.5911,-1.5912,-1.5887,-1.5884,-1.5928,-1.5933,-1.5939,-1.6011,-1.595,-1.5953,-1.5955,-1.611,-1.6112,-1.6115,0,0,0,0,0,0,-1.5804,-1.5813,-1.5888,-1.5853,-1.5862,-1.5869,-1.5891,-1.5891,-1.5904,-1.5914,-1.5915,-1.59,-1.5927,-1.5934,-1.5981,-1.6012,-1.5955,-1.5958,-1.6107,-1.6111,-1.6113,-1.6156,0,0,0,0,0,0,-1.5801,-1.5813,-1.5836,-1.5853,-1.5864,-1.5931,-1.5893,-1.5893,-1.591,-1.5907,-1.5926,-1.5928,-1.5926,-1.5976,-1.5985,-1.6016,-1.5961,-1.6105,-1.6109,-1.6112,-1.6152,-1.616,-1.6167,0,0,0,0,0,-1.5798,-1.5846,-1.5837,-1.5846,-1.5893,-1.5932,-1.5938,-1.5935,-1.5913,-1.5936,-1.5942,-1.5927,-1.6007,-1.5981,-1.5991,-1.6024,-1.6103,-1.6108,-1.6112,-1.6148,-1.6159,-1.6167,0,0,0,0,0,0,-1.5832,-1.5848,-1.5839,-1.5894,-1.5912,-1.5928,-1.5957,-1.5946,-1.597,-1.5966,-1.596,-1.5965,-1.6015,-1.6024,-1.5995,-1.6083,-1.6051,-1.6058,-1.6076,-1.6085,-1.6093,-1.6091,-1.5964,0,0,0,0,0,-1.5846,-1.5877,-1.5889,-1.5937,-1.5947,-1.595,-1.5967,-1.5963,-1.5981,-1.5989,-1.5999,-1.6018,-1.6047,-1.6066,-1.6094,-1.6152,-1.6157,-1.6179,-1.6187,-1.6193,-1.62,-1.6232,-1.6243,-1.613,-1.613,-1.613,0,0,-1.5876,-1.5888,-1.5908,-1.5945,-1.5958,-1.599,-1.5957,-1.5992,-1.6016,-1.5994,-1.604,-1.6048,-1.6068,-1.6122,-1.6146,-1.6131,-1.6231,-1.6199,-1.6204,-1.6208,-1.6238,-1.6249,-1.6258,-1.6133,-1.6133,-1.6132,0,0,-1.5946,-1.5959,-1.6,-1.6014,-1.6035,-1.6037,-1.6047,-1.6064,-1.6068,-1.6114,-1.6098,-1.6126,-1.6176,-1.6192,-1.6206,-1.6281,-1.6269,-1.629,-1.6331,-1.6363,-1.6372,-1.638,-1.6408,-1.6418,-1.6296,-1.6296,-1.6296,0,-1.5981,-1.6029,-1.6023,-1.606,-1.6077,-1.6057,-1.61,-1.6113,-1.6142,-1.6154,-1.6136,-1.6198,-1.6211,-1.6268,-1.6286,-1.6298,-1.6309,-1.6289,-1.6371,-1.6379,-1.6386,-1.6413,-1.6423,-1.6299,-1.6299,-1.6298,-1.6298,0,-1.6071,-1.6104,-1.6135,-1.6163,-1.6183,-1.6222,-1.6223,-1.6243,-1.6236,-1.624,-1.6287,-1.6301,-1.6331,-1.6343,-1.6337,-1.64,-1.639,-1.6371,-1.634,-1.6399,-1.6424,-1.6434,-1.6303,-1.6302,-1.6301,-1.63,0,0,-1.6166,-1.619,-1.6202,-1.6214,-1.6235,-1.6261,-1.6299,-1.6328,-1.6346,-1.6366,-1.6398,-1.6441,-1.6424,-1.644,-1.6435,-1.6463,-1.6523,-1.6441,-1.6441,-1.6457,-1.6593,-1.6608,-1.662,-1.6513,-1.6515,-1.6517,-1.6592,0,-1.6239,-1.6307,-1.6302,-1.6365,-1.6396,-1.6378,-1.6411,-1.6427,-1.6431,-1.6458,-1.6462,-1.6493,-1.6468,-1.6478,-1.6504,-1.651,-1.655,-1.6504,-1.6544,-1.6546,-1.6542,-1.6633,-1.6649,-1.672,-1.6602,-1.6603,-1.6604,0,-1.6334,-1.6357,-1.6424,-1.644,-1.6453,-1.6483,-1.6509,-1.6535,-1.6553,-1.6554,-1.6572,-1.6562,-1.66,-1.6567,-1.662,-1.6589,-1.6604,-1.6609,-1.6612,-1.6617,-1.658,-1.6642,-1.6742,-1.6754,-1.6619,-1.6618,-1.6617,0,-1.6399,-1.6447,-1.6493,-1.6504,-1.6523,-1.6545,-1.6554,-1.657,-1.6588,-1.661,-1.6622,-1.6649,-1.6664,-1.6685,-1.6682,-1.6658,-1.6737,-1.6703,-1.674,-1.674,-1.6759,-1.6758,-1.6864,-1.6766,-1.6766,-1.6766,-1.6765,0,-1.6483,-1.6524,-1.6522,-1.6551,-1.6597,-1.6591,-1.6637,-1.6643,-1.6657,-1.6687,-1.6671,-1.6699,-1.6694,-1.6722,-1.672,-1.6765,-1.6771,-1.6774,-1.6773,-1.6776,-1.6776,-1.6788,-1.6784,-1.6768,-1.6768,-1.6767,-1.6767,0,-1.6564,-1.6564,-1.6614,-1.6627,-1.6632,-1.6666,-1.6677,-1.6704,-1.6706,-1.6744,-1.6752,-1.6756,-1.6788,-1.6787,-1.6823,-1.6822,-1.6878,-1.687,-1.6872,-1.6871,-1.6909,-1.6906,-1.7028,-1.7044,-1.6933,-1.6934,-1.6935,0,-1.6618,-1.665,-1.6667,-1.6686,-1.6696,-1.6727,-1.6745,-1.6739,-1.6758,-1.678,-1.6805,-1.6835,-1.686,-1.6911,-1.6917,-1.6945,-1.6939,-1.698,-1.6943,-1.6945,-1.6942,-1.6941,-1.6944,-1.6988,-1.6989,-1.699,-1.6991,0,-1.6715,-1.6713,-1.674,-1.6767,-1.6788,-1.6809,-1.6828,-1.6844,-1.684,-1.6863,-1.6895,-1.6914,-1.6951,-1.6981,-1.7008,-1.7017,-1.7004,-1.7002,-1.7012,-1.7017,-1.7017,-1.7019,-1.6893,-1.7,-1.6999,-1.6998,-1.6998,-1.6997,-1.6785,-1.6813,-1.683,-1.686,-1.6873,-1.6891,-1.6917,-1.6922,-1.6949,-1.6979,-1.6974,-1.701,-1.7026,-1.706,-1.7072,-1.71,-1.7086,-1.71,-1.7104,-1.7109,-1.7114,-1.7011,-1.7105,-1.7104,-1.7104,-1.7104,-1.7104,0,-1.6883,-1.6892,-1.692,-1.6947,-1.6971,-1.6955,-1.6975,-1.6996,-1.7028,-1.7044,-1.7068,-1.7106,-1.7135,-1.7143,-1.7171,-1.7192,-1.7187,-1.72,-1.7199,-1.7202,-1.7124,-1.7113,-1.7204,-1.7204,-1.7204,-1.7204,-1.7204,-1.7204,-1.6936,-1.6982,-1.6983,-1.7035,-1.7044,-1.708,-1.7093,-1.7109,-1.7122,-1.7164,-1.7189,-1.7193,-1.7206,-1.7235,-1.7261,-1.7262,-1.7274,-1.729,-1.7289,-1.7217,-1.7207,-1.7198,-1.7187,-1.7292,-1.7292,-1.7365,-1.7366,-1.7366]},{"header":{"parameterUnit":"m.s-1","parameterCategory":1,"la1":30.2991,"la2":30.254,"lo1":-89.0895,"lo2":-89.0444,"dy":0.0017,"dx":0.0017,"nx":28,"ny":28,"refTime":"2025-02-23T03:00:00:Z","depth":0,"parameterNumber":3,"parameterNumberName":"V-component_of_WINDS"},"data":[0,0,0,0,0,0,0,0,0,0,0,0,0,0,0,0,0,0,0,0,0,0,0,0,0,0,0,0,0,0,0,0,0,0,0,0,0,0,0,0,0,0,0,0,0,0,0,0,0,0,0,0,0,0,0,0,0,0,-4.6105,-4.6105,0,-4.6149,-4.615,-4.615,-4.6088,-4.6086,-4.6084,-4.6082,-4.6124,-4.6127,-4.613,0,0,0,0,0,0,0,0,0,0,0,0,0,-4.5962,-4.5965,-4.6104,-4.6105,-4.6106,-4.6149,-4.615,-4.615,-4.6089,-4.6086,-4.6084,-4.6081,-4.6123,-4.6126,-4.613,0,0,0,0,0,0,0,0,0,0,0,0,0,-4.6017,-4.5966,-4.6104,-4.608,-4.6079,-4.6149,-4.615,-4.6151,-4.6089,-4.6086,-4.6083,-4.608,-4.6122,-4.6126,-4.6131,-4.6226,0,0,-4.6145,-4.6147,0,0,0,0,0,0,0,0,-4.6014,-4.6022,-4.6083,-4.6082,-4.608,-4.611,-4.6115,-4.6176,-4.609,-4.6085,-4.6082,-4.6078,-4.6122,-4.6126,-4.6142,-4.6228,-4.623,-4.6146,-4.6149,-4.6151,-4.6152,0,0,0,0,0,0,0,-4.601,-4.602,-4.6122,-4.6084,-4.6082,-4.6066,-4.607,-4.6126,-4.6121,-4.6085,-4.6081,-4.6087,-4.612,-4.6137,-4.6142,-4.623,-4.6146,-4.615,-4.6153,-4.6155,-4.6397,-4.6401,0,0,0,0,0,0,-4.601,-4.6017,-4.6121,-4.6123,-4.6038,-4.6071,-4.6076,-4.6104,-4.612,-4.612,-4.609,-4.6084,-4.6131,-4.6137,-4.6143,-4.6257,-4.6151,-4.6155,-4.6158,-4.6394,-4.6398,-4.6402,0,0,0,0,0,0,-4.6007,-4.602,-4.6119,-4.6069,-4.6081,-4.6077,-4.6109,-4.6106,-4.6123,-4.6124,-4.6122,-4.6109,-4.6128,-4.6137,-4.6206,-4.6257,-4.6157,-4.6161,-4.6389,-4.6395,-4.64,-4.6484,0,0,0,0,0,0,-4.6003,-4.6019,-4.6056,-4.607,-4.6083,-4.6182,-4.6112,-4.611,-4.6132,-4.6125,-4.6141,-4.6141,-4.6126,-4.62,-4.6211,-4.6262,-4.6165,-4.6385,-4.6392,-4.6398,-4.6476,-4.6491,-4.6504,0,0,0,0,0,-4.5998,-4.6077,-4.6058,-4.6071,-4.613,-4.6186,-4.6193,-4.6176,-4.6137,-4.6173,-4.6174,-4.614,-4.625,-4.6207,-4.6219,-4.6273,-4.6381,-4.639,-4.6398,-4.647,-4.6488,-4.6504,0,0,0,0,0,0,-4.6066,-4.6078,-4.6058,-4.6143,-4.6164,-4.6175,-4.6221,-4.6196,-4.6227,-4.6219,-4.6195,-4.6199,-4.6274,-4.628,-4.6232,-4.6366,-4.6309,-4.632,-4.636,-4.6377,-4.6391,-4.6388,-4.6169,0,0,0,0,0,-4.6092,-4.6137,-4.6144,-4.6219,-4.6231,-4.6224,-4.6248,-4.6233,-4.6253,-4.6261,-4.6267,-4.6286,-4.6325,-4.6351,-4.6386,-4.6476,-4.6479,-4.6519,-4.6533,-4.6544,-4.6554,-4.6603,-4.6621,-4.6428,-4.6428,-4.6428,0,0,-4.6144,-4.6156,-4.6186,-4.6233,-4.6248,-4.6295,-4.6232,-4.6284,-4.6318,-4.6268,-4.6336,-4.634,-4.636,-4.6441,-4.6476,-4.6448,-4.6608,-4.6555,-4.6564,-4.6568,-4.6613,-4.6632,-4.6648,-4.6434,-4.6433,-4.6432,0,0,-4.6263,-4.6277,-4.6342,-4.6358,-4.6381,-4.6376,-4.6392,-4.6407,-4.6408,-4.6475,-4.6439,-4.6479,-4.6546,-4.6562,-4.6579,-4.6706,-4.6676,-4.6718,-4.679,-4.6838,-4.6853,-4.6867,-4.6913,-4.693,-4.6727,-4.6728,-4.6728,0,-4.6325,-4.6396,-4.6377,-4.6433,-4.6455,-4.6413,-4.6478,-4.6494,-4.6527,-4.6543,-4.651,-4.6595,-4.6605,-4.6689,-4.6721,-4.6735,-4.6752,-4.6716,-4.6853,-4.6866,-4.6878,-4.6922,-4.6939,-4.6733,-4.6732,-4.6731,-4.6731,0,-4.6471,-4.6521,-4.657,-4.6605,-4.6632,-4.6692,-4.6682,-4.6711,-4.6694,-4.6692,-4.6761,-4.6772,-4.681,-4.6828,-4.6811,-4.691,-4.6892,-4.6857,-4.6799,-4.6902,-4.6943,-4.6959,-4.674,-4.6738,-4.6736,-4.6735,0,0,-4.6635,-4.6661,-4.6679,-4.6695,-4.6718,-4.6755,-4.6812,-4.6851,-4.6877,-4.69,-4.6948,-4.7006,-4.6974,-4.6993,-4.6978,-4.702,-4.712,-4.6979,-4.6979,-4.7006,-4.7231,-4.7259,-4.7279,-4.71,-4.7103,-4.7106,-4.723,0,-4.6756,-4.6858,-4.6843,-4.6941,-4.6986,-4.6948,-4.6997,-4.7016,-4.7016,-4.7054,-4.7052,-4.7095,-4.7048,-4.706,-4.71,-4.71,-4.7165,-4.709,-4.7144,-4.7147,-4.7142,-4.73,-4.7329,-4.7445,-4.7246,-4.7248,-4.725,0,-4.6911,-4.6943,-4.7046,-4.7062,-4.7081,-4.7126,-4.7161,-4.7197,-4.7217,-4.7214,-4.7236,-4.7213,-4.727,-4.7211,-4.7288,-4.7237,-4.7258,-4.7262,-4.7266,-4.7271,-4.7206,-4.7311,-4.7482,-4.75,-4.7275,-4.7273,-4.7271,0,-4.7022,-4.709,-4.7161,-4.7176,-4.7196,-4.7229,-4.7239,-4.7256,-4.7281,-4.731,-4.7325,-4.736,-4.738,-4.7407,-4.7393,-4.7351,-4.7474,-4.7413,-4.7472,-4.7473,-4.7501,-4.75,-4.768,-4.7512,-4.7512,-4.7512,-4.7511,0,-4.7159,-4.7224,-4.7212,-4.7255,-4.7326,-4.7308,-4.7378,-4.7383,-4.7399,-4.7442,-4.7409,-4.745,-4.7429,-4.7468,-4.7457,-4.7524,-4.7532,-4.7531,-4.7528,-4.7535,-4.7536,-4.7549,-4.7541,-4.7516,-4.7515,-4.7514,-4.7514,0,-4.7297,-4.7291,-4.7366,-4.738,-4.7384,-4.7436,-4.7448,-4.7488,-4.7485,-4.754,-4.7552,-4.7547,-4.7592,-4.7581,-4.7628,-4.7621,-4.7705,-4.7691,-4.7699,-4.7696,-4.7757,-4.7752,-4.7954,-4.7979,-4.7794,-4.7796,-4.7797,0,-4.7385,-4.7435,-4.7454,-4.7482,-4.7495,-4.7539,-4.7564,-4.7548,-4.7575,-4.7602,-4.7639,-4.7681,-4.7713,-4.7786,-4.7786,-4.7822,-4.7809,-4.7877,-4.7814,-4.7821,-4.7812,-4.781,-4.7815,-4.789,-4.7892,-4.7894,-4.7895,0,-4.7544,-4.7539,-4.7578,-4.7616,-4.7647,-4.7676,-4.7701,-4.7725,-4.771,-4.7742,-4.7788,-4.7813,-4.7863,-4.7905,-4.7938,-4.7947,-4.7919,-4.7915,-4.7931,-4.794,-4.7943,-4.7944,-4.7735,-4.7911,-4.7909,-4.7908,-4.7907,-4.7907,-4.766,-4.7703,-4.7724,-4.7768,-4.7786,-4.7811,-4.785,-4.7853,-4.7891,-4.7932,-4.7918,-4.7971,-4.7989,-4.8032,-4.8045,-4.8085,-4.8059,-4.8082,-4.8088,-4.8094,-4.8102,-4.7936,-4.809,-4.809,-4.8089,-4.8089,-4.8089,0,-4.7819,-4.7831,-4.7871,-4.7909,-4.7944,-4.7916,-4.7942,-4.7973,-4.802,-4.804,-4.8074,-4.8127,-4.8167,-4.8171,-4.8209,-4.824,-4.8228,-4.8251,-4.8249,-4.8251,-4.8122,-4.8106,-4.826,-4.826,-4.826,-4.826,-4.8259,-4.8259,-4.7905,-4.7976,-4.7974,-4.8053,-4.8063,-4.8116,-4.8134,-4.8156,-4.8173,-4.8234,-4.8268,-4.8271,-4.8284,-4.8323,-4.8359,-4.8358,-4.8374,-4.8402,-4.8397,-4.8277,-4.826,-4.8244,-4.8228,-4.8405,-4.8406,-4.8523,-4.8524,-4.8525]}]]